Location: Unspecified
(0.0000°N, 0.0000°E)
Time: 01:25:18
(UTC+00:00)

Hubble Space Telescope - Pass Details

Date: 24 November 2018
Orbit: 536 x 540 km, 28.5° (Epoch: 19 October)

Event Time Altitude Azimuth Distance (km) Brightness Sun altitude
Exits shadow 04:59:53 - 244° (WSW) 2,144 3.4 -10.9°
Reaches altitude 10° 05:00:48 10° 245° (WSW) 1,782 3.0 -10.7°
Maximum altitude 05:04:55 73° 329° (NNW) 558 0.7 -9.8°
Drops below altitude 10° 05:09:01 10° 55° (NE) 1,775 3.9 -8.8°
Sets 05:11:16 0° 57° (ENE) 2,663 4.9 -8.3°
